Year,Month,Day,Hour,Minute,Value (Times are PST for temperature in C)
2016,06,07,00,00,14.70
2016,06,07,00,01,14.70
2016,06,07,00,02,14.70
2016,06,07,00,03,14.70
2016,06,07,00,04,14.70
2016,06,07,00,05,14.70
2016,06,07,00,06,14.70
2016,06,07,00,07,14.70
2016,06,07,00,08,14.70
2016,06,07,00,09,14.70
2016,06,07,00,10,14.70
2016,06,07,00,11,14.60
2016,06,07,00,12,14.60
2016,06,07,00,13,14.60
2016,06,07,00,14,14.60
2016,06,07,00,15,14.60
2016,06,07,00,16,14.60
2016,06,07,00,17,14.60
2016,06,07,00,18,14.60
2016,06,07,00,19,14.60
2016,06,07,00,20,14.60
2016,06,07,00,21,14.60
2016,06,07,00,22,14.50
2016,06,07,00,23,14.50
2016,06,07,00,24,14.50
2016,06,07,00,25,14.50
2016,06,07,00,26,14.50
2016,06,07,00,27,14.50
2016,06,07,00,28,14.50
2016,06,07,00,29,14.50
2016,06,07,00,30,14.50
2016,06,07,00,31,14.50
2016,06,07,00,32,14.50
2016,06,07,00,33,14.50
2016,06,07,00,34,14.50
2016,06,07,00,35,14.50
2016,06,07,00,36,14.50
2016,06,07,00,37,14.50
2016,06,07,00,38,14.40
2016,06,07,00,39,14.40
2016,06,07,00,40,14.40
2016,06,07,00,41,14.40
2016,06,07,00,42,14.40
2016,06,07,00,43,14.40
2016,06,07,00,44,14.40
2016,06,07,00,45,14.40
2016,06,07,00,46,14.40
2016,06,07,00,47,14.40
2016,06,07,00,48,14.40
2016,06,07,00,49,14.40
2016,06,07,00,50,14.30
2016,06,07,00,51,14.30
2016,06,07,00,52,14.30
2016,06,07,00,53,14.30
2016,06,07,00,54,14.30
2016,06,07,00,55,14.30
2016,06,07,00,56,14.30
2016,06,07,00,57,14.30
2016,06,07,00,58,14.30
2016,06,07,00,59,14.30
2016,06,07,01,00,14.40
2016,06,07,01,01,14.40
2016,06,07,01,02,14.40
2016,06,07,01,03,14.40
2016,06,07,01,04,14.40
2016,06,07,01,05,14.40
2016,06,07,01,06,14.40
2016,06,07,01,07,14.40
2016,06,07,01,08,14.30
2016,06,07,01,09,14.30
2016,06,07,01,10,14.30
2016,06,07,01,11,14.30
2016,06,07,01,12,14.30
2016,06,07,01,13,14.30
2016,06,07,01,14,14.30
2016,06,07,01,15,14.30
2016,06,07,01,16,14.30
2016,06,07,01,17,14.30
2016,06,07,01,18,14.30
2016,06,07,01,19,14.30
2016,06,07,01,20,14.30
2016,06,07,01,21,14.30
2016,06,07,01,22,14.30
2016,06,07,01,23,14.30
2016,06,07,01,24,14.20
2016,06,07,01,25,14.20
2016,06,07,01,26,14.20
2016,06,07,01,27,14.20
2016,06,07,01,28,14.20
2016,06,07,01,29,14.20
2016,06,07,01,30,14.20
2016,06,07,01,31,14.20
2016,06,07,01,32,14.20
2016,06,07,01,33,14.10
2016,06,07,01,34,14.10
2016,06,07,01,35,14.10
2016,06,07,01,36,14.10
2016,06,07,01,37,14.10
2016,06,07,01,38,14.10
2016,06,07,01,39,14.00
2016,06,07,01,40,14.00
2016,06,07,01,41,13.90
2016,06,07,01,42,13.90
2016,06,07,01,43,13.90
2016,06,07,01,44,13.90
2016,06,07,01,45,13.80
2016,06,07,01,46,13.80
2016,06,07,01,47,13.80
2016,06,07,01,48,13.80
2016,06,07,01,49,13.70
2016,06,07,01,50,13.70
2016,06,07,01,51,13.70
2016,06,07,01,52,13.70
2016,06,07,01,53,13.60
2016,06,07,01,54,13.60
2016,06,07,01,55,13.60
2016,06,07,01,56,13.50
2016,06,07,01,57,13.40
2016,06,07,01,58,13.40
2016,06,07,01,59,13.40
2016,06,07,02,00,13.40
2016,06,07,02,01,13.40
2016,06,07,02,02,13.30
2016,06,07,02,03,13.30
2016,06,07,02,04,13.30
2016,06,07,02,05,13.30
2016,06,07,02,06,13.20
2016,06,07,02,07,13.20
2016,06,07,02,08,13.20
2016,06,07,02,09,13.10
2016,06,07,02,10,13.10
2016,06,07,02,11,13.10
2016,06,07,02,12,13.10
2016,06,07,02,13,13.00
2016,06,07,02,14,13.00
2016,06,07,02,15,12.90
2016,06,07,02,16,12.90
2016,06,07,02,17,12.90
2016,06,07,02,18,12.90
2016,06,07,02,19,12.90
2016,06,07,02,20,12.90
2016,06,07,02,21,12.90
2016,06,07,02,22,12.90
2016,06,07,02,23,12.90
2016,06,07,02,24,12.90
2016,06,07,02,25,12.90
2016,06,07,02,26,12.90
2016,06,07,02,27,12.90
2016,06,07,02,28,12.90
2016,06,07,02,29,12.90
2016,06,07,02,30,12.90
2016,06,07,02,31,12.90
2016,06,07,02,32,12.90
2016,06,07,02,33,12.90
2016,06,07,02,34,12.90
2016,06,07,02,35,12.90
2016,06,07,02,36,12.80
2016,06,07,02,37,12.80
2016,06,07,02,38,12.80
2016,06,07,02,39,12.80
2016,06,07,02,40,12.80
2016,06,07,02,41,12.70
2016,06,07,02,42,12.70
2016,06,07,02,43,12.70
2016,06,07,02,44,12.70
2016,06,07,02,45,12.70
2016,06,07,02,46,12.70
2016,06,07,02,47,12.70
2016,06,07,02,48,12.60
2016,06,07,02,49,12.60
2016,06,07,02,50,12.50
2016,06,07,02,51,12.50
2016,06,07,02,52,12.40
2016,06,07,02,53,12.40
2016,06,07,02,54,12.30
2016,06,07,02,55,12.30
2016,06,07,02,56,12.30
2016,06,07,02,57,12.30
2016,06,07,02,58,12.30
2016,06,07,02,59,12.30
2016,06,07,03,00,12.30
2016,06,07,03,01,12.20
2016,06,07,03,02,12.20
2016,06,07,03,03,12.20
2016,06,07,03,04,12.20
2016,06,07,03,05,12.20
2016,06,07,03,06,12.20
2016,06,07,03,07,12.20
2016,06,07,03,08,12.20
2016,06,07,03,09,12.20
2016,06,07,03,10,12.20
2016,06,07,03,11,12.20
2016,06,07,03,12,12.20
2016,06,07,03,13,12.10
2016,06,07,03,14,12.10
2016,06,07,03,15,12.10
2016,06,07,03,16,12.10
2016,06,07,03,17,12.10
2016,06,07,03,18,12.10
2016,06,07,03,19,12.10
2016,06,07,03,20,12.10
2016,06,07,03,21,12.00
2016,06,07,03,22,12.00
2016,06,07,03,23,12.00
2016,06,07,03,24,12.00
2016,06,07,03,25,12.00
2016,06,07,03,26,11.90
2016,06,07,03,27,11.90
2016,06,07,03,28,11.90
2016,06,07,03,29,11.90
2016,06,07,03,30,11.90
2016,06,07,03,31,11.90
2016,06,07,03,32,11.90
2016,06,07,03,33,11.90
2016,06,07,03,34,11.90
2016,06,07,03,35,11.90
2016,06,07,03,36,11.90
2016,06,07,03,37,11.80
2016,06,07,03,38,11.80
2016,06,07,03,39,11.80
2016,06,07,03,40,11.80
2016,06,07,03,41,11.80
2016,06,07,03,42,11.80
2016,06,07,03,43,11.80
2016,06,07,03,44,11.80
2016,06,07,03,45,11.80
2016,06,07,03,46,11.80
2016,06,07,03,47,11.80
2016,06,07,03,48,11.80
2016,06,07,03,49,11.80
2016,06,07,03,50,11.80
2016,06,07,03,51,11.80
2016,06,07,03,52,11.80
2016,06,07,03,53,11.80
2016,06,07,03,54,11.80
2016,06,07,03,55,11.80
2016,06,07,03,56,11.80
2016,06,07,03,57,11.80
2016,06,07,03,58,11.80
2016,06,07,03,59,11.80
2016,06,07,04,00,11.70
2016,06,07,04,01,11.70
2016,06,07,04,02,11.70
2016,06,07,04,03,11.70
2016,06,07,04,04,11.70
2016,06,07,04,05,11.70
2016,06,07,04,06,11.70
2016,06,07,04,07,11.70
2016,06,07,04,08,11.70
2016,06,07,04,09,11.70
2016,06,07,04,10,11.70
2016,06,07,04,11,11.70
2016,06,07,04,12,11.70
2016,06,07,04,13,11.70
2016,06,07,04,14,11.70
2016,06,07,04,15,11.60
2016,06,07,04,16,11.60
2016,06,07,04,17,11.60
2016,06,07,04,18,11.60
2016,06,07,04,19,11.60
2016,06,07,04,20,11.60
2016,06,07,04,21,11.60
2016,06,07,04,22,11.60
2016,06,07,04,23,11.60
2016,06,07,04,24,11.60
2016,06,07,04,25,11.60
2016,06,07,04,26,11.60
2016,06,07,04,27,11.60
2016,06,07,04,28,11.60
2016,06,07,04,29,11.50
2016,06,07,04,30,11.50
2016,06,07,04,31,11.50
2016,06,07,04,32,11.50
2016,06,07,04,33,11.50
2016,06,07,04,34,11.50
2016,06,07,04,35,11.40
2016,06,07,04,36,11.40
2016,06,07,04,37,11.40
2016,06,07,04,38,11.40
2016,06,07,04,39,11.40
2016,06,07,04,40,11.40
2016,06,07,04,41,11.40
2016,06,07,04,42,11.40
2016,06,07,04,43,11.40
2016,06,07,04,44,11.40
2016,06,07,04,45,11.40
2016,06,07,04,46,11.40
2016,06,07,04,47,11.40
2016,06,07,04,48,11.30
2016,06,07,04,49,11.30
2016,06,07,04,50,11.30
2016,06,07,04,51,11.30
2016,06,07,04,52,11.30
2016,06,07,04,53,11.30
2016,06,07,04,54,11.20
2016,06,07,04,55,11.20
2016,06,07,04,56,11.20
2016,06,07,04,57,11.20
2016,06,07,04,58,11.20
2016,06,07,04,59,11.20
2016,06,07,05,00,11.10
2016,06,07,05,01,11.10
2016,06,07,05,02,11.10
2016,06,07,05,03,11.10
2016,06,07,05,04,11.10
2016,06,07,05,05,11.10
2016,06,07,05,06,11.00
2016,06,07,05,07,11.00
2016,06,07,05,08,11.00
2016,06,07,05,09,10.90
2016,06,07,05,10,10.90
2016,06,07,05,11,10.90
2016,06,07,05,12,10.90
2016,06,07,05,13,10.90
2016,06,07,05,14,10.90
2016,06,07,05,15,10.80
2016,06,07,05,16,10.80
2016,06,07,05,17,10.80
2016,06,07,05,18,10.80
2016,06,07,05,19,10.80
2016,06,07,05,20,10.80
2016,06,07,05,21,10.80
2016,06,07,05,22,10.80
2016,06,07,05,23,10.80
2016,06,07,05,24,10.80
2016,06,07,05,25,10.80
2016,06,07,05,26,10.80
2016,06,07,05,27,10.80
2016,06,07,05,28,10.80
2016,06,07,05,29,10.80
2016,06,07,05,30,10.80
2016,06,07,05,31,10.80
2016,06,07,05,32,10.80
2016,06,07,05,33,10.80
2016,06,07,05,34,10.80
2016,06,07,05,35,10.80
2016,06,07,05,36,10.70
2016,06,07,05,37,10.70
2016,06,07,05,38,10.70
2016,06,07,05,39,10.70
2016,06,07,05,40,10.70
2016,06,07,05,41,10.70
2016,06,07,05,42,10.70
2016,06,07,05,43,10.70
2016,06,07,05,44,10.70
2016,06,07,05,45,10.70
2016,06,07,05,46,10.70
2016,06,07,05,47,10.70
2016,06,07,05,48,10.70
2016,06,07,05,49,10.70
2016,06,07,05,50,10.70
2016,06,07,05,51,10.70
2016,06,07,05,52,10.70
2016,06,07,05,53,10.70
2016,06,07,05,54,10.70
2016,06,07,05,55,10.70
2016,06,07,05,56,10.70
2016,06,07,05,57,10.70
2016,06,07,05,58,10.80
2016,06,07,05,59,10.80
2016,06,07,06,00,10.80
2016,06,07,06,01,10.80
2016,06,07,06,02,10.80
2016,06,07,06,03,10.80
2016,06,07,06,04,10.90
2016,06,07,06,05,10.90
2016,06,07,06,06,10.90
2016,06,07,06,07,11.00
2016,06,07,06,08,11.00
2016,06,07,06,09,11.10
2016,06,07,06,10,11.10
2016,06,07,06,11,11.20
2016,06,07,06,12,11.20
2016,06,07,06,13,11.20
2016,06,07,06,14,11.20
2016,06,07,06,15,11.30
2016,06,07,06,16,11.30
2016,06,07,06,17,11.30
2016,06,07,06,18,11.40
2016,06,07,06,19,11.40
2016,06,07,06,20,11.50
2016,06,07,06,21,11.60
2016,06,07,06,22,11.60
2016,06,07,06,23,11.70
2016,06,07,06,24,11.70
2016,06,07,06,25,11.80
2016,06,07,06,26,11.80
2016,06,07,06,27,11.80
2016,06,07,06,28,11.90
2016,06,07,06,29,11.90
2016,06,07,06,30,11.90
2016,06,07,06,31,12.00
2016,06,07,06,32,12.00
2016,06,07,06,33,12.10
2016,06,07,06,34,12.10
2016,06,07,06,35,12.10
2016,06,07,06,36,12.10
2016,06,07,06,37,12.10
2016,06,07,06,38,12.20
2016,06,07,06,39,12.20
2016,06,07,06,40,12.20
2016,06,07,06,41,12.20
2016,06,07,06,42,12.20
2016,06,07,06,43,12.20
2016,06,07,06,44,12.20
2016,06,07,06,45,12.20
2016,06,07,06,46,12.30
2016,06,07,06,47,12.30
2016,06,07,06,48,12.40
2016,06,07,06,49,12.40
2016,06,07,06,50,12.50
2016,06,07,06,51,12.60
2016,06,07,06,52,12.60
2016,06,07,06,53,12.70
2016,06,07,06,54,12.70
2016,06,07,06,55,12.80
2016,06,07,06,56,12.80
2016,06,07,06,57,12.80
2016,06,07,06,58,12.80
2016,06,07,06,59,12.80
2016,06,07,07,00,12.80
2016,06,07,07,01,12.80
2016,06,07,07,02,12.80
2016,06,07,07,03,12.80
2016,06,07,07,04,12.80
2016,06,07,07,05,12.80
2016,06,07,07,06,12.80
2016,06,07,07,07,12.80
2016,06,07,07,08,12.80
2016,06,07,07,09,12.80
2016,06,07,07,10,12.80
2016,06,07,07,11,12.80
2016,06,07,07,12,12.80
2016,06,07,07,13,12.80
2016,06,07,07,14,12.80
2016,06,07,07,15,12.80
2016,06,07,07,16,12.80
2016,06,07,07,17,12.80
2016,06,07,07,18,12.80
2016,06,07,07,19,12.80
2016,06,07,07,20,12.80
2016,06,07,07,21,12.80
2016,06,07,07,22,12.80
2016,06,07,07,23,12.90
2016,06,07,07,24,12.90
2016,06,07,07,25,12.90
2016,06,07,07,26,12.90
2016,06,07,07,27,12.90
2016,06,07,07,28,13.00
2016,06,07,07,29,13.00
2016,06,07,07,30,13.00
2016,06,07,07,31,13.10
2016,06,07,07,32,13.10
2016,06,07,07,33,13.10
2016,06,07,07,34,13.10
2016,06,07,07,35,13.10
2016,06,07,07,36,13.20
2016,06,07,07,37,13.20
2016,06,07,07,38,13.20
2016,06,07,07,39,13.30
2016,06,07,07,40,13.40
2016,06,07,07,41,13.40
2016,06,07,07,42,13.50
2016,06,07,07,43,13.60
2016,06,07,07,44,13.70
2016,06,07,07,45,13.80
2016,06,07,07,46,13.80
2016,06,07,07,47,13.90
2016,06,07,07,48,14.00
2016,06,07,07,49,14.00
2016,06,07,07,50,14.10
2016,06,07,07,51,14.10
2016,06,07,07,52,14.10
2016,06,07,07,53,14.00
2016,06,07,07,54,13.90
2016,06,07,07,55,13.80
2016,06,07,07,56,13.70
2016,06,07,07,57,13.50
2016,06,07,07,58,13.40
2016,06,07,07,59,13.30
2016,06,07,08,00,13.20
2016,06,07,08,01,13.10
2016,06,07,08,02,13.00
2016,06,07,08,03,12.90
2016,06,07,08,04,12.80
2016,06,07,08,05,12.80
2016,06,07,08,06,12.80
2016,06,07,08,07,12.70
2016,06,07,08,08,12.70
2016,06,07,08,09,12.70
2016,06,07,08,10,12.70
2016,06,07,08,11,12.70
2016,06,07,08,12,12.70
2016,06,07,08,13,12.70
2016,06,07,08,14,12.70
2016,06,07,08,15,12.70
2016,06,07,08,16,12.70
2016,06,07,08,17,12.70
2016,06,07,08,18,12.80
2016,06,07,08,19,12.90
2016,06,07,08,20,12.90
2016,06,07,08,21,13.00
2016,06,07,08,22,13.10
2016,06,07,08,23,13.20
2016,06,07,08,24,13.30
2016,06,07,08,25,13.50
2016,06,07,08,26,13.60
2016,06,07,08,27,13.80
2016,06,07,08,28,13.90
2016,06,07,08,29,14.00
2016,06,07,08,30,14.10
2016,06,07,08,31,14.10
2016,06,07,08,32,14.20
2016,06,07,08,33,14.20
2016,06,07,08,34,14.30
2016,06,07,08,35,14.40
2016,06,07,08,36,14.50
2016,06,07,08,37,14.60
2016,06,07,08,38,14.70
2016,06,07,08,39,14.80
2016,06,07,08,40,14.90
2016,06,07,08,41,15.00
2016,06,07,08,42,15.10
2016,06,07,08,43,15.20
2016,06,07,08,44,15.30
2016,06,07,08,45,15.40
2016,06,07,08,46,15.50
2016,06,07,08,47,15.60
2016,06,07,08,48,15.60
2016,06,07,08,49,15.70
2016,06,07,08,50,15.70
2016,06,07,08,51,15.70
2016,06,07,08,52,15.70
2016,06,07,08,53,15.70
2016,06,07,08,54,15.70
2016,06,07,08,55,15.70
2016,06,07,08,56,15.80
2016,06,07,08,57,15.70
2016,06,07,08,58,15.70
2016,06,07,08,59,15.70
2016,06,07,09,00,15.70
2016,06,07,09,01,15.70
2016,06,07,09,02,15.60
2016,06,07,09,03,15.60
2016,06,07,09,04,15.60
2016,06,07,09,05,15.60
2016,06,07,09,06,15.60
2016,06,07,09,07,15.60
2016,06,07,09,08,15.60
2016,06,07,09,09,15.60
2016,06,07,09,10,15.50
2016,06,07,09,11,15.50
2016,06,07,09,12,15.50
2016,06,07,09,13,15.50
2016,06,07,09,14,15.50
2016,06,07,09,15,15.50
2016,06,07,09,16,15.50
2016,06,07,09,17,15.50
2016,06,07,09,18,15.50
2016,06,07,09,19,15.50
2016,06,07,09,20,15.50
2016,06,07,09,21,15.50
2016,06,07,09,22,15.50
2016,06,07,09,23,15.40
2016,06,07,09,24,15.40
2016,06,07,09,25,15.40
2016,06,07,09,26,15.30
2016,06,07,09,27,15.30
2016,06,07,09,28,15.30
2016,06,07,09,29,15.20
2016,06,07,09,30,15.20
2016,06,07,09,31,15.20
2016,06,07,09,32,15.20
2016,06,07,09,33,15.20
2016,06,07,09,34,15.20
2016,06,07,09,35,15.20
2016,06,07,09,36,15.20
2016,06,07,09,37,15.20
2016,06,07,09,38,15.20
2016,06,07,09,39,15.20
2016,06,07,09,40,15.20
2016,06,07,09,41,15.20
2016,06,07,09,42,15.20
2016,06,07,09,43,15.20
2016,06,07,09,44,15.20
2016,06,07,09,45,15.30
2016,06,07,09,46,15.30
2016,06,07,09,47,15.40
2016,06,07,09,48,15.50
2016,06,07,09,49,15.50
2016,06,07,09,50,15.60
2016,06,07,09,51,15.60
2016,06,07,09,52,15.70
2016,06,07,09,53,15.80
2016,06,07,09,54,15.80
2016,06,07,09,55,15.90
2016,06,07,09,56,15.90
2016,06,07,09,57,16.00
2016,06,07,09,58,16.00
2016,06,07,09,59,16.00
2016,06,07,10,00,16.10
2016,06,07,10,01,16.10
2016,06,07,10,02,16.20
2016,06,07,10,03,16.20
2016,06,07,10,04,16.30
2016,06,07,10,05,16.30
2016,06,07,10,06,16.30
2016,06,07,10,07,16.40
2016,06,07,10,08,16.40
2016,06,07,10,09,16.40
2016,06,07,10,10,16.40
2016,06,07,10,11,16.40
2016,06,07,10,12,16.30
2016,06,07,10,13,16.20
2016,06,07,10,14,16.10
2016,06,07,10,15,15.90
2016,06,07,10,16,15.70
2016,06,07,10,17,15.50
2016,06,07,10,18,15.20
2016,06,07,10,19,15.00
2016,06,07,10,20,14.80
2016,06,07,10,21,14.70
2016,06,07,10,22,14.50
2016,06,07,10,23,14.40
2016,06,07,10,24,14.40
2016,06,07,10,25,14.30
2016,06,07,10,26,14.20
2016,06,07,10,27,14.20
2016,06,07,10,28,14.20
2016,06,07,10,29,14.30
2016,06,07,10,30,14.40
2016,06,07,10,31,14.50
2016,06,07,10,32,14.70
2016,06,07,10,33,14.80
2016,06,07,10,34,14.90
2016,06,07,10,35,15.00
2016,06,07,10,36,15.10
2016,06,07,10,37,15.20
2016,06,07,10,38,15.30
2016,06,07,10,39,15.50
2016,06,07,10,40,15.60
2016,06,07,10,41,15.70
2016,06,07,10,42,15.80
2016,06,07,10,43,15.90
2016,06,07,10,44,16.00
2016,06,07,10,45,16.10
2016,06,07,10,46,16.10
2016,06,07,10,47,16.20
2016,06,07,10,48,16.20
2016,06,07,10,49,16.30
2016,06,07,10,50,16.30
2016,06,07,10,51,16.40
2016,06,07,10,52,16.40
2016,06,07,10,53,16.40
2016,06,07,10,54,16.50
2016,06,07,10,55,16.60
2016,06,07,10,56,16.60
2016,06,07,10,57,16.60
2016,06,07,10,58,16.70
2016,06,07,10,59,16.70
2016,06,07,11,00,16.70
2016,06,07,11,01,16.70
2016,06,07,11,02,16.80
2016,06,07,11,03,16.80
2016,06,07,11,04,16.80
2016,06,07,11,05,16.90
2016,06,07,11,06,16.90
2016,06,07,11,07,17.00
2016,06,07,11,08,17.00
2016,06,07,11,09,17.10
2016,06,07,11,10,17.10
2016,06,07,11,11,17.10
2016,06,07,11,12,17.10
2016,06,07,11,13,17.10
2016,06,07,11,14,17.10
2016,06,07,11,15,17.00
2016,06,07,11,16,17.00
2016,06,07,11,17,16.90
2016,06,07,11,18,16.80
2016,06,07,11,19,16.80
2016,06,07,11,20,16.80
2016,06,07,11,21,16.80
2016,06,07,11,22,16.80
2016,06,07,11,23,16.80
2016,06,07,11,24,16.50
2016,06,07,11,25,16.10
2016,06,07,11,26,15.90
2016,06,07,11,27,15.70
2016,06,07,11,28,15.60
2016,06,07,11,29,15.40
2016,06,07,11,30,15.20
2016,06,07,11,31,15.00
2016,06,07,11,32,14.90
2016,06,07,11,33,14.70
2016,06,07,11,34,14.60
2016,06,07,11,35,14.40
2016,06,07,11,36,14.20
2016,06,07,11,37,14.10
2016,06,07,11,38,13.90
2016,06,07,11,39,13.80
2016,06,07,11,40,13.70
2016,06,07,11,41,13.70
2016,06,07,11,42,13.60
2016,06,07,11,43,13.60
2016,06,07,11,44,13.60
2016,06,07,11,45,13.60
2016,06,07,11,46,13.50
2016,06,07,11,47,13.40
2016,06,07,11,48,13.30
2016,06,07,11,49,13.30
2016,06,07,11,50,13.20
2016,06,07,11,51,13.20
2016,06,07,11,52,13.20
2016,06,07,11,53,13.20
2016,06,07,11,54,13.20
2016,06,07,11,55,13.30
2016,06,07,11,56,13.40
2016,06,07,11,57,13.50
2016,06,07,11,58,13.70
2016,06,07,11,59,13.90
2016,06,07,12,00,14.10
2016,06,07,12,01,14.30
2016,06,07,12,02,14.50
2016,06,07,12,03,14.70
2016,06,07,12,04,14.80
2016,06,07,12,05,15.00
2016,06,07,12,06,15.20
2016,06,07,12,07,15.30
2016,06,07,12,08,15.40
2016,06,07,12,09,15.50
2016,06,07,12,10,15.60
2016,06,07,12,11,15.70
2016,06,07,12,12,15.70
2016,06,07,12,13,15.70
2016,06,07,12,14,15.70
2016,06,07,12,15,15.60
2016,06,07,12,16,15.50
2016,06,07,12,17,15.50
2016,06,07,12,18,15.40
2016,06,07,12,19,15.40
2016,06,07,12,20,15.30
2016,06,07,12,21,15.20
2016,06,07,12,22,15.10
2016,06,07,12,23,15.00
2016,06,07,12,24,14.80
2016,06,07,12,25,14.60
2016,06,07,12,26,14.50
2016,06,07,12,27,14.50
2016,06,07,12,28,14.50
2016,06,07,12,29,14.50
2016,06,07,12,30,14.50
2016,06,07,12,31,14.50
2016,06,07,12,32,14.60
2016,06,07,12,33,14.80
2016,06,07,12,34,14.90
2016,06,07,12,35,15.10
2016,06,07,12,36,15.20
2016,06,07,12,37,15.30
2016,06,07,12,38,15.30
2016,06,07,12,39,15.30
2016,06,07,12,40,15.30
2016,06,07,12,41,15.20
2016,06,07,12,42,15.30
2016,06,07,12,43,15.50
2016,06,07,12,44,15.60
2016,06,07,12,45,15.80
2016,06,07,12,46,16.00
2016,06,07,12,47,16.20
2016,06,07,12,48,16.30
2016,06,07,12,49,16.40
2016,06,07,12,50,16.40
2016,06,07,12,51,16.50
2016,06,07,12,52,16.60
2016,06,07,12,53,16.70
2016,06,07,12,54,16.70
2016,06,07,12,55,16.70
2016,06,07,12,56,16.70
2016,06,07,12,57,16.60
2016,06,07,12,58,16.60
2016,06,07,12,59,16.50
2016,06,07,13,00,16.30
2016,06,07,13,01,16.20
2016,06,07,13,02,15.90
2016,06,07,13,03,15.70
2016,06,07,13,04,15.40
2016,06,07,13,05,15.20
2016,06,07,13,06,15.00
2016,06,07,13,07,14.80
2016,06,07,13,08,14.60
2016,06,07,13,09,14.40
2016,06,07,13,10,14.30
2016,06,07,13,11,14.10
2016,06,07,13,12,13.90
2016,06,07,13,13,13.80
2016,06,07,13,14,13.70
2016,06,07,13,15,13.60
2016,06,07,13,16,13.50
2016,06,07,13,17,13.40
2016,06,07,13,18,13.50
2016,06,07,13,19,13.50
2016,06,07,13,20,13.60
2016,06,07,13,21,13.80
2016,06,07,13,22,13.90
2016,06,07,13,23,14.00
2016,06,07,13,24,14.10
2016,06,07,13,25,14.10
2016,06,07,13,26,14.20
2016,06,07,13,27,14.20
2016,06,07,13,28,14.20
2016,06,07,13,29,14.20
2016,06,07,13,30,14.30
2016,06,07,13,31,14.30
2016,06,07,13,32,14.30
2016,06,07,13,33,14.40
2016,06,07,13,34,14.40
2016,06,07,13,35,14.50
2016,06,07,13,36,14.60
2016,06,07,13,37,14.70
2016,06,07,13,38,14.80
2016,06,07,13,39,14.80
2016,06,07,13,40,14.90
2016,06,07,13,41,15.00
2016,06,07,13,42,15.00
2016,06,07,13,43,15.10
2016,06,07,13,44,15.10
2016,06,07,13,45,15.10
2016,06,07,13,46,15.20
2016,06,07,13,47,15.20
2016,06,07,13,48,15.20
2016,06,07,13,49,15.20
2016,06,07,13,50,15.20
2016,06,07,13,51,15.10
2016,06,07,13,52,15.10
2016,06,07,13,53,15.10
2016,06,07,13,54,15.20
2016,06,07,13,55,15.30
2016,06,07,13,56,15.40
2016,06,07,13,57,15.50
2016,06,07,13,58,15.60
2016,06,07,13,59,15.80
2016,06,07,14,00,16.00
2016,06,07,14,01,16.20
2016,06,07,14,02,16.30
2016,06,07,14,03,16.30
2016,06,07,14,04,16.30
2016,06,07,14,05,16.10
2016,06,07,14,06,15.90
2016,06,07,14,07,15.70
2016,06,07,14,08,15.60
2016,06,07,14,09,15.50
2016,06,07,14,10,15.40
2016,06,07,14,11,15.40
2016,06,07,14,12,15.40
2016,06,07,14,13,15.30
2016,06,07,14,14,15.20
2016,06,07,14,15,15.00
2016,06,07,14,16,14.90
2016,06,07,14,17,14.90
2016,06,07,14,18,15.00
2016,06,07,14,19,15.10
2016,06,07,14,20,15.30
2016,06,07,14,21,15.50
2016,06,07,14,22,15.80
2016,06,07,14,23,16.10
2016,06,07,14,24,16.30
2016,06,07,14,25,16.60
2016,06,07,14,26,16.80
2016,06,07,14,27,17.00
2016,06,07,14,28,17.20
2016,06,07,14,29,17.40
2016,06,07,14,30,17.50
2016,06,07,14,31,17.70
2016,06,07,14,32,17.80
2016,06,07,14,33,17.90
2016,06,07,14,34,18.00
2016,06,07,14,35,18.10
2016,06,07,14,36,18.10
2016,06,07,14,37,18.20
2016,06,07,14,38,18.20
2016,06,07,14,39,18.30
2016,06,07,14,40,18.30
2016,06,07,14,41,18.30
2016,06,07,14,42,18.30
2016,06,07,14,43,18.30
2016,06,07,14,44,18.30
2016,06,07,14,45,18.30
2016,06,07,14,46,18.30
2016,06,07,14,47,18.20
2016,06,07,14,48,18.20
2016,06,07,14,49,18.10
2016,06,07,14,50,18.00
2016,06,07,14,51,17.90
2016,06,07,14,52,17.80
2016,06,07,14,53,17.70
2016,06,07,14,54,17.70
2016,06,07,14,55,17.70
2016,06,07,14,56,17.70
2016,06,07,14,57,17.70
2016,06,07,14,58,17.80
2016,06,07,14,59,18.00
2016,06,07,15,00,18.00
2016,06,07,15,01,18.10
2016,06,07,15,02,18.20
2016,06,07,15,03,18.20
2016,06,07,15,04,18.00
2016,06,07,15,05,17.80
2016,06,07,15,06,17.50
2016,06,07,15,07,17.30
2016,06,07,15,08,17.10
2016,06,07,15,09,17.10
2016,06,07,15,10,17.10
2016,06,07,15,11,17.10
2016,06,07,15,12,17.20
2016,06,07,15,13,17.20
2016,06,07,15,14,17.30
2016,06,07,15,15,17.40
2016,06,07,15,16,17.50
2016,06,07,15,17,17.60
2016,06,07,15,18,17.70
2016,06,07,15,19,17.80
2016,06,07,15,20,17.90
2016,06,07,15,21,18.00
2016,06,07,15,22,18.00
2016,06,07,15,23,18.00
2016,06,07,15,24,17.90
2016,06,07,15,25,17.70
2016,06,07,15,26,17.50
2016,06,07,15,27,17.40
2016,06,07,15,28,17.40
2016,06,07,15,29,17.40
2016,06,07,15,30,17.50
2016,06,07,15,31,17.60
2016,06,07,15,32,17.60
2016,06,07,15,33,17.60
2016,06,07,15,34,17.60
2016,06,07,15,35,17.70
2016,06,07,15,36,17.70
2016,06,07,15,37,17.80
2016,06,07,15,38,17.90
2016,06,07,15,39,17.90
2016,06,07,15,40,18.00
2016,06,07,15,41,18.10
2016,06,07,15,42,18.10
2016,06,07,15,43,18.20
2016,06,07,15,44,18.30
2016,06,07,15,45,18.40
2016,06,07,15,46,18.60
2016,06,07,15,47,18.70
2016,06,07,15,48,18.80
2016,06,07,15,49,18.90
2016,06,07,15,50,19.10
2016,06,07,15,51,19.40
2016,06,07,15,52,19.70
2016,06,07,15,53,19.90
2016,06,07,15,54,20.10
2016,06,07,15,55,20.20
2016,06,07,15,56,20.20
2016,06,07,15,57,20.30
2016,06,07,15,58,20.40
2016,06,07,15,59,20.50
2016,06,07,16,00,20.60
2016,06,07,16,01,20.70
2016,06,07,16,02,20.80
2016,06,07,16,03,20.90
2016,06,07,16,04,21.00
2016,06,07,16,05,21.10
2016,06,07,16,06,21.20
2016,06,07,16,07,21.30
2016,06,07,16,08,21.40
2016,06,07,16,09,21.50
2016,06,07,16,10,21.50
2016,06,07,16,11,21.60
2016,06,07,16,12,21.60
2016,06,07,16,13,21.60
2016,06,07,16,14,21.70
2016,06,07,16,15,21.60
2016,06,07,16,16,21.30
2016,06,07,16,17,21.00
2016,06,07,16,18,20.70
2016,06,07,16,19,20.10
2016,06,07,16,20,19.70
2016,06,07,16,21,19.20
2016,06,07,16,22,18.70
2016,06,07,16,23,18.10
2016,06,07,16,24,17.60
2016,06,07,16,25,17.30
2016,06,07,16,26,17.10
2016,06,07,16,27,16.90
2016,06,07,16,28,16.80
2016,06,07,16,29,16.90
2016,06,07,16,30,17.10
2016,06,07,16,31,17.70
2016,06,07,16,32,18.50
2016,06,07,16,33,19.40
2016,06,07,16,34,20.20
2016,06,07,16,35,20.80
2016,06,07,16,36,21.30
2016,06,07,16,37,21.80
2016,06,07,16,38,22.00
2016,06,07,16,39,22.20
2016,06,07,16,40,22.40
2016,06,07,16,41,22.60
2016,06,07,16,42,22.70
2016,06,07,16,43,22.90
2016,06,07,16,44,23.00
2016,06,07,16,45,23.20
2016,06,07,16,46,23.30
2016,06,07,16,47,23.40
2016,06,07,16,48,23.50
2016,06,07,16,49,23.50
2016,06,07,16,50,23.60
2016,06,07,16,51,23.70
2016,06,07,16,52,23.70
2016,06,07,16,53,23.80
2016,06,07,16,54,23.80
2016,06,07,16,55,23.80
2016,06,07,16,56,23.80
2016,06,07,16,57,23.80
2016,06,07,16,58,23.80
2016,06,07,16,59,23.80
2016,06,07,17,00,23.80
2016,06,07,17,01,23.80
2016,06,07,17,02,23.80
2016,06,07,17,03,23.80
2016,06,07,17,04,23.80
2016,06,07,17,05,23.80
2016,06,07,17,06,23.80
2016,06,07,17,07,23.80
2016,06,07,17,08,23.80
2016,06,07,17,09,23.80
2016,06,07,17,10,23.80
2016,06,07,17,11,23.80
2016,06,07,17,12,23.80
2016,06,07,17,13,23.80
2016,06,07,17,14,23.80
2016,06,07,17,15,23.70
2016,06,07,17,16,23.50
2016,06,07,17,17,23.50
2016,06,07,17,18,23.40
2016,06,07,17,19,23.40